Date String (YYYY-MM-DD hh:mm:ss) UTC,Instrument flags,Ambient pressure (hPa),Sample flow (lpm),Bypass flow (lpm),Sample temperature (°C),Ambient temperature (°C),ASC tube jacket temperature (°C),LED temperature (°C),Box temperature (°C),Sample RH (%),Span deviation,Mass concentration (μg/m³),Mass concentration (μg/m³),Mass concentration (μg/m³)
DateTimeUTC,F1_M11,P_M11,Q1_M11,Q2_M11,T1_M11,T2_M11,T3_M11,T4_M11,T5_M11,U1_M11,ZSPAN_M11,X0_M11,X2_M11,X1_M11
2021-08-21 08:00:00,,0830.1,5.02,0.00,30.2,29.3,00.0,39.3,32.0,20.9,0002.4,0022.62,0016.22,0015.58
2021-08-21 08:01:00,,0830.1,4.98,0.00,30.2,29.4,00.0,39.3,32.0,20.9,0002.5,0022.65,0016.18,0015.51
2021-08-21 08:02:00,,0830.1,5.01,0.00,30.2,29.4,00.0,39.3,32.0,20.8,0002.6,0022.46,0016.03,0015.34
2021-08-21 08:03:00,,0830.1,5.00,0.00,30.3,29.4,00.0,39.3,32.0,20.8,0002.6,0021.86,0015.93,0015.24
2021-08-21 08:04:00,,0830.1,5.00,0.00,30.3,29.4,00.0,39.4,32.1,20.8,0002.4,0021.64,0015.85,0015.15
2021-08-21 08:05:00,,0830.1,5.00,0.00,30.3,29.4,00.0,39.4,32.1,20.6,0002.4,0021.40,0015.66,0015.00
2021-08-21 08:06:00,,0830.2,5.00,0.00,30.3,29.4,00.0,39.4,32.1,20.6,0002.3,0020.89,0015.49,0014.84
2021-08-21 08:07:00,,0830.2,5.00,0.00,30.3,29.4,00.0,39.4,32.1,20.7,0002.3,0020.63,0015.39,0014.76
2021-08-21 08:08:00,,0830.2,5.00,0.00,30.3,29.5,00.0,39.4,32.1,20.7,0002.4,0020.28,0015.32,0014.71
2021-08-21 08:09:00,,0830.3,5.00,0.00,30.3,29.5,00.0,39.4,32.1,20.6,0002.4,0020.66,0015.16,0014.58
2021-08-21 08:10:00,,0830.2,5.01,0.00,30.4,29.5,00.0,39.4,32.1,20.6,0002.3,0020.30,0015.03,0014.50
2021-08-21 08:11:00,,0830.2,4.99,0.00,30.4,29.5,00.0,39.5,32.1,20.6,0002.2,0020.18,0014.94,0014.42
2021-08-21 08:12:00,,0830.2,4.99,0.00,30.4,29.5,00.0,39.5,32.1,20.6,0002.1,0019.96,0014.85,0014.36
2021-08-21 08:13:00,,0830.2,5.00,0.00,30.4,29.5,00.0,39.5,32.1,20.6,0002.0,0019.98,0014.86,0014.39
2021-08-21 08:14:00,,0830.3,5.00,0.00,30.4,29.5,00.0,39.5,32.2,20.5,0001.9,0020.30,0014.81,0014.36
2021-08-21 08:15:00,,0830.3,4.99,0.00,30.4,28.9,00.0,39.5,32.0,20.5,0002.0,0020.52,0014.75,0014.31
2021-08-21 08:16:00,,0830.3,5.00,0.00,30.2,26.8,00.0,39.4,31.5,20.4,0002.1,0020.92,0014.66,0014.18
2021-08-21 08:17:00,,0830.3,5.00,0.00,30.1,26.2,00.0,39.4,31.3,20.6,0002.0,0020.91,0014.52,0014.05
2021-08-21 08:18:00,,0830.2,5.00,0.00,29.9,26.5,00.0,39.3,31.2,21.0,0001.7,0021.22,0014.43,0013.92
2021-08-21 08:19:00,,0830.2,5.00,0.00,29.9,26.9,00.0,39.3,31.3,21.1,0001.8,0021.01,0014.32,0013.81
2021-08-21 08:20:00,,0830.2,4.99,0.00,29.8,27.3,00.0,39.2,31.3,21.1,0001.8,0020.15,0014.21,0013.72
2021-08-21 08:21:00,,0830.3,5.01,0.00,29.8,27.6,00.0,39.2,31.4,21.2,0001.9,0020.09,0014.13,0013.65
2021-08-21 08:22:00,,0830.2,5.00,0.00,29.8,27.9,00.0,39.2,31.4,21.4,0001.8,0019.92,0014.02,0013.55
2021-08-21 08:23:00,,0830.3,4.97,0.00,29.8,28.1,00.0,39.1,31.5,21.2,0001.9,0019.89,0013.95,0013.48
2021-08-21 08:24:00,,0830.2,5.01,0.00,29.8,28.2,00.0,39.1,31.5,21.1,0002.0,0019.85,0013.86,0013.41
2021-08-21 08:25:00,,0830.2,5.00,0.00,29.8,28.3,00.0,39.1,31.5,21.1,0002.0,0019.54,0013.79,0013.32
2021-08-21 08:26:00,,0830.3,5.00,0.00,29.8,28.4,00.0,39.1,31.6,21.1,0001.9,0019.43,0013.73,0013.23
2021-08-21 08:27:00,,0830.2,5.00,0.00,29.9,28.5,00.0,39.1,31.6,21.0,0001.7,0018.90,0013.71,0013.22
2021-08-21 08:28:00,,0830.3,5.00,0.00,29.9,28.6,00.0,39.1,31.7,21.0,0001.8,0018.91,0013.75,0013.26
2021-08-21 08:29:00,,0830.3,5.00,0.00,29.9,28.7,00.0,39.1,31.7,20.9,0001.9,0018.81,0013.69,0013.20
2021-08-21 08:30:00,,0830.3,5.00,0.00,29.9,28.8,00.0,39.1,31.7,20.9,0002.0,0018.44,0013.56,0013.10
2021-08-21 08:31:00,,0830.3,5.01,0.00,29.9,28.8,00.0,39.1,31.7,21.0,0001.9,0018.60,0013.52,0013.06
2021-08-21 08:32:00,,0830.3,5.00,0.00,29.9,28.9,00.0,39.1,31.7,21.0,0002.0,0018.51,0013.44,0012.99
2021-08-21 08:33:00,,0830.3,5.00,0.00,30.0,28.9,00.0,39.1,31.7,20.9,0002.1,0018.51,0013.38,0012.92
2021-08-21 08:34:00,,0830.2,4.99,0.00,30.0,28.9,00.0,39.1,31.8,20.9,0002.1,0018.41,0013.28,0012.82
2021-08-21 08:35:00,,0830.3,5.00,0.00,30.0,28.9,00.0,39.1,31.7,20.8,0002.0,0018.11,0013.15,0012.70
2021-08-21 08:36:00,,0830.3,5.00,0.00,30.0,28.9,00.0,39.1,31.8,20.7,0001.9,0017.73,0012.98,0012.56
2021-08-21 08:37:00,,0830.3,5.01,0.00,30.0,29.0,00.0,39.1,31.8,20.8,0002.0,0017.41,0012.84,0012.44
2021-08-21 08:38:00,,0830.2,5.00,0.00,30.0,29.0,00.0,39.1,31.8,20.7,0002.1,0017.37,0012.77,0012.37
2021-08-21 08:39:00,,0830.3,5.00,0.00,30.0,29.0,00.0,39.1,31.8,20.7,0002.2,0017.16,0012.69,0012.29
2021-08-21 08:40:00,,0830.3,5.01,0.00,30.1,29.0,00.0,39.2,31.8,20.7,0002.3,0016.66,0012.58,0012.20
2021-08-21 08:41:00,,0830.3,5.01,0.00,30.1,29.0,00.0,39.2,31.9,20.8,0002.1,0016.59,0012.53,0012.16
2021-08-21 08:42:00,,0830.3,4.99,0.00,30.1,29.0,00.0,39.2,31.9,20.9,0002.1,0016.34,0012.50,0012.11
2021-08-21 08:43:00,,0830.3,4.99,0.00,30.1,29.1,00.0,39.2,31.9,20.8,0002.0,0016.21,0012.45,0012.07
2021-08-21 08:44:00,,0830.3,5.00,0.00,30.1,29.1,00.0,39.2,31.9,20.6,0002.0,0016.14,0012.37,0012.00
2021-08-21 08:45:00,,0830.3,5.01,0.00,30.1,29.1,00.0,39.2,31.9,20.6,0002.1,0016.04,0012.28,0011.91
2021-08-21 08:46:00,,0830.3,5.00,0.00,30.1,29.1,00.0,39.2,31.9,20.7,0002.3,0016.14,0012.28,0011.91
2021-08-21 08:47:00,,0830.4,5.00,0.00,30.1,29.1,00.0,39.2,31.9,20.7,0002.2,0016.28,0012.34,0011.94
2021-08-21 08:48:00,,0830.4,5.00,0.00,30.1,29.2,00.0,39.2,31.9,20.5,0002.1,0016.22,0012.32,0011.93
2021-08-21 08:49:00,,0830.4,5.00,0.00,30.1,29.1,00.0,39.2,31.9,20.5,0002.1,0016.09,0012.27,0011.89
2021-08-21 08:50:00,,0830.4,4.99,0.00,30.2,29.1,00.0,39.3,32.0,20.4,0001.9,0016.02,0012.20,0011.83
2021-08-21 08:51:00,,0830.4,5.01,0.00,30.2,29.2,00.0,39.3,32.0,20.4,0001.9,0016.11,0012.16,0011.78
2021-08-21 08:52:00,,0830.4,4.99,0.00,30.2,29.1,00.0,39.3,32.0,20.4,0002.1,0016.41,0012.07,0011.70
2021-08-21 08:53:00,,0830.4,5.02,0.00,30.2,29.2,00.0,39.3,32.0,20.4,0002.1,0016.41,0012.03,0011.67
2021-08-21 08:54:00,,0830.4,5.00,0.00,30.2,29.2,00.0,39.3,32.0,20.4,0002.2,0016.70,0011.97,0011.60
2021-08-21 08:55:00,,0830.4,5.00,0.00,30.2,29.2,00.0,39.3,32.0,20.4,0002.1,0017.25,0011.96,0011.57
2021-08-21 08:56:00,,0830.4,5.00,0.00,30.2,29.1,00.0,39.3,32.0,20.4,0002.0,0017.32,0011.99,0011.56
2021-08-21 08:57:00,,0830.4,5.00,0.00,30.2,29.2,00.0,39.3,32.0,20.5,0001.9,0017.87,0011.99,0011.55
2021-08-21 08:58:00,,0830.4,5.02,0.00,30.2,29.2,00.0,39.3,32.0,20.5,0002.2,0017.82,0011.94,0011.50
2021-08-21 08:59:00,,0830.5,4.99,0.00,30.2,29.2,00.0,39.3,32.0,20.8,0002.4,0017.71,0011.91,0011.51
